EW4463 Weather Reports


time (UTC)temp
F
wind
direction
speed
knots
gust
knots
rain 1hr
in
rain 24hr
in
rain mn
in
humidity
%
barometer
mb
20260503225457 68 272 17.4 19.1 0.00 0.00 0.00 47 1005.2
20260503224952 68 270 19.1 21.7 0.00 0.00 0.00 47 1005.3
20260503224449 68 275 20.0 21.7 0.00 0.00 0.00 47 1005.4
20260503223947 68 269 13.0 21.7 0.00 0.00 0.00 48 1005.6
20260503223445 68 270 14.8 17.4 0.00 0.00 0.00 49 1005.5
20260503222940 68 294 12.2 18.2 0.00 0.00 0.00 49 1005.5
20260503222439 68 273 16.5 21.7 0.00 0.00 0.00 47 1005.4
20260503221937 68 289 19.1 20.9 0.00 0.00 0.00 48 1005.4
20260503221435 68 293 13.9 19.1 0.00 0.00 0.00 48 1005.3
20260503220931 67 284 17.4 22.6 0.00 0.00 0.00 48 1005.5
20260503220428 68 276 18.2 20.9 0.00 0.00 0.00 47 1005.4
20260503215925 68 276 19.1 21.7 0.00 0.00 0.00 48 1005.5
20260503215422 68 275 13.9 22.6 0.00 0.00 0.00 48 1005.5
20260503214920 67 270 18.2 21.7 0.00 0.00 0.00 47 1005.6
20260503214417 68 276 16.5 19.1 0.00 0.00 0.00 48 1005.5
20260503213914 67 267 13.9 22.6 0.00 0.00 0.00 49 1005.6
20260503213412 68 269 17.4 20.0 0.00 0.00 0.00 47 1005.4
20260503212908 67 280 14.8 23.5 0.00 0.00 0.00 48 1005.5
20260503212406 67 285 20.9 25.2 0.00 0.00 0.00 48 1005.4
20260503211903 67 270 19.1 25.2 0.00 0.00 0.00 48 1005.3
20260503211400 67 272 16.5 27.8 0.00 0.00 0.00 49 1005.7
20260503210855 67 277 18.2 22.6 0.00 0.00 0.00 49 1005.9
20260503210353 67 287 16.5 26.9 0.00 0.00 0.00 49 1005.8
20260503205847 67 259 20.9 26.9 0.00 0.00 0.00 47 1005.7
20260503205344 66 280 11.3 20.0 0.00 0.00 0.00 50 1006.0
20260503204840 66 273 19.1 25.2 0.00 0.00 0.00 49 1006.1
20260503204338 67 274 15.6 22.6 0.00 0.00 0.00 48 1005.8
20260503203835 67 262 15.6 18.2 0.00 0.00 0.00 48 1005.9
20260503203333 66 276 15.6 20.9 0.00 0.00 0.00 48 1006.1
20260503202829 66 249 13.9 20.9 0.00 0.00 0.00 48 1006.3
20260503202328 66 265 23.5 26.9 0.00 0.00 0.00 46 1006.4
20260503201826 66 273 21.7 26.1 0.00 0.00 0.00 48 1006.4
20260503201322 66 283 22.6 29.5 0.00 0.00 0.00 48 1006.2
20260503200820 66 266 22.6 27.8 0.00 0.00 0.00 48 1006.4
20260503200315 65 282 20.9 26.1 0.00 0.00 0.00 48 1006.8
20260503195813 66 271 18.2 22.6 0.00 0.00 0.00 49 1006.8
20260503195309 65 288 19.1 21.7 0.00 0.00 0.00 49 1006.9
20260503194807 65 272 21.7 29.5 0.00 0.00 0.00 50 1006.7
20260503194302 65 283 19.1 28.7 0.00 0.00 0.00 51 1007.0
20260503193759 64 270 20.9 35.6 0.00 0.00 0.00 51 1007.1
20260503193255 66 272 22.6 28.7 0.00 0.00 0.00 50 1006.9
20260503192751 65 246 19.1 23.5 0.00 0.00 0.00 52 1007.2
20260503192246 64 280 20.9 29.5 0.00 0.00 0.00 52 1007.2
20260503191743 63 280 20.9 26.1 0.00 0.00 0.00 54 1007.4
20260503191240 62 256 22.6 26.1 0.00 0.00 0.00 54 1007.3
20260503190737 65 270 26.1 29.5 0.00 0.00 0.00 53 1007.5
20260503190234 63 264 20.9 27.8 0.00 0.00 0.00 53 1007.6
20260503185731 63 264 25.2 28.7 0.00 0.00 0.00 53 1007.5
20260503185226 64 275 25.2 32.2 0.00 0.00 0.00 53 1007.8
20260503184721 62 295 20.9 27.8 0.00 0.00 0.00 54 1007.4
20260503184218 62 253 23.5 30.4 0.00 0.00 0.00 54 1007.6
20260503183714 62 276 26.9 32.2 0.00 0.00 0.00 53 1007.6
20260503183212 62 274 20.9 37.4 0.00 0.00 0.00 55 1007.7
20260503182710 62 261 27.8 40.0 0.00 0.00 0.00 53 1007.6
20260503182208 63 262 32.2 37.4 0.00 0.00 0.00 49 1007.3
20260503181704 63 260 20.9 26.1 0.00 0.00 0.00 50 1007.9
20260503181201 63 251 23.5 26.9 0.00 0.00 0.00 49 1007.8
20260503180658 63 211 27.8 33.9 0.00 0.00 0.00 48 1007.8
20260503180156 63 273 20.9 30.4 0.00 0.00 0.00 52 1007.9
20260503175653 62 244 15.6 27.8 0.00 0.00 0.00 53 1008.1
20260503175150 62 285 19.1 29.5 0.00 0.00 0.00 53 1008.1
20260503174646 61 258 11.3 22.6 0.00 0.00 0.00 56 1008.4
20260503174144 61 250 17.4 27.8 0.00 0.00 0.00 54 1008.6
20260503173639 61 257 15.6 22.6 0.00 0.00 0.00 55 1008.9
20260503173135 61 256 19.1 25.2 0.00 0.00 0.00 56 1008.7
20260503172632 60 248 15.6 22.6 0.00 0.00 0.00 56 1008.8
20260503172130 60 261 16.5 32.2 0.00 0.00 0.00 59 1008.9
20260503171626 60 240 15.6 28.7 0.00 0.00 0.00 58 1009.2
20260503171123 60 233 9.6 19.1 0.00 0.00 0.00 59 1009.2
20260503170621 59 259 12.2 15.6 0.00 0.00 0.00 60 1009.2
20260503170117 59 224 8.7 20.0 0.00 0.00 0.00 61 1009.2
20260503151012 51 251 14.8 20.0 0.00 0.00 0.00 78 1011.2
20260503150509 51 258 15.6 23.5 0.00 0.00 0.00 77 1011.2
20260503131402 53 261 13.9 21.7 0.00 0.00 0.00 66 1011.5
20260503130859 53 273 17.4 26.9 0.00 0.00 0.00 65 1011.8
20260503130356 52 256 15.6 22.6 0.00 0.00 0.00 66 1011.7
20260503110755 47 258 10.4 14.8 0.00 0.00 0.00 65 1011.9
20260503110252 47 270 13.0 14.8 0.00 0.00 0.00 64 1012.3
20260503100219 47 271 7.8 13.9 0.00 0.00 0.00 63 1012.5
20260503090138 47 270 10.4 13.0 0.00 0.00 0.00 63 1012.6
20260503081608 48 278 9.6 11.3 0.00 0.00 0.00 61 1013.1
20260503081105 48 244 8.7 13.0 0.00 0.00 0.00 60 1013.3
20260503080600 48 266 9.6 12.2 0.00 0.00 0.00 60 1013.3
20260503072540 48 258 8.7 12.2 0.00 0.00 0.00 59 1013.4
20260503072037 48 206 8.7 11.3 0.00 0.00 0.00 59 1013.5
20260503071533 49 269 8.7 14.8 0.00 0.00 0.00 58 1013.5
20260503071030 49 253 12.2 13.9 0.00 0.00 0.00 55 1013.5
20260503070526 49 298 9.6 13.9 0.00 0.00 0.00 57 1013.4
20260503054945 50 265 10.4 14.8 0.00 0.00 0.00 55 1014.0
20260503054442 50 283 13.0 15.6 0.00 0.00 0.00 54 1013.9
20260503053939 50 270 13.9 15.6 0.00 0.00 0.00 54 1014.1
20260503053437 50 275 12.2 13.9 0.00 0.00 0.00 54 1014.1
20260503052933 50 278 10.4 13.0 0.00 0.00 0.00 56 1014.4
20260503052431 50 274 10.4 13.9 0.00 0.00 0.00 55 1014.2
20260503051927 50 285 8.7 11.3 0.00 0.00 0.00 56 1014.3
20260503051423 49 269 10.4 12.2 0.00 0.00 0.00 56 1014.2
20260503050920 49 277 12.2 13.9 0.00 0.00 0.00 55 1014.5
20260503050416 49 277 9.6 13.0 0.00 0.00 0.00 57 1014.3
20260503045914 50 276 11.3 17.4 0.00 0.00 0.00 55 1014.2
20260503045411 49 275 12.2 13.9 0.00 0.00 0.00 56 1014.2
20260503044908 49 270 10.4 14.8 0.00 0.00 0.00 57 1014.4
20260503044405 49 280 10.4 13.0 0.00 0.00 0.00 58 1014.4
20260503043902 49 275 11.3 13.0 0.00 0.00 0.00 57 1014.5
20260503043359 49 258 10.4 13.0 0.00 0.00 0.00 56 1014.4
20260503042855 49 269 11.3 13.0 0.00 0.00 0.00 57 1014.5
20260503042352 49 292 10.4 13.0 0.00 0.00 0.00 57 1014.6
20260503041848 49 274 10.4 13.0 0.00 0.00 0.00 57 1014.6
20260503041345 48 271 10.4 12.2 0.00 0.00 0.00 58 1014.6
20260503040843 48 271 9.6 11.3 0.00 0.00 0.00 59 1014.6
20260503040340 48 287 9.6 12.2 0.00 0.00 0.00 57 1014.9
20260503035837 48 267 8.7 11.3 0.00 0.00 0.00 59 1014.7
20260503035334 48 265 8.7 13.0 0.00 0.00 0.00 59 1015.0
20260503034831 48 274 8.7 9.6 0.00 0.00 0.00 59 1015.0
20260503034329 48 269 7.8 9.6 0.00 0.00 0.00 60 1014.9
20260503033826 48 271 8.7 9.6 0.00 0.00 0.00 60 1014.9
20260503033323 48 271 8.7 9.6 0.00 0.00 0.00 60 1015.0
20260503032821 48 256 7.8 9.6 0.00 0.00 0.00 60 1015.0
20260503032320 48 266 7.8 8.7 0.00 0.00 0.00 61 1015.0
20260503031816 48 268 8.7 9.6 0.00 0.00 0.00 60 1015.2
20260503031315 48 270 8.7 8.7 0.00 0.00 0.00 60 1015.3
20260503030810 48 273 7.8 8.7 0.00 0.00 0.00 60 1015.1
20260503030307 49 280 7.8 8.7 0.00 0.00 0.00 58 1015.4
20260503025804 49 254 7.8 9.6 0.00 0.00 0.00 57 1015.3
20260503025304 49 268 7.8 8.7 0.00 0.00 0.00 57 1015.4
20260503024758 49 264 6.1 7.8 0.00 0.00 0.00 58 1015.4
20260503024255 49 269 6.1 7.0 0.00 0.00 0.00 58 1015.3
20260503023752 49 259 7.0 8.7 0.00 0.00 0.00 54 1015.3
20260503023249 50 262 6.1 7.0 0.00 0.00 0.00 54 1015.3
20260503022745 50 251 6.1 7.0 0.00 0.00 0.00 54 1015.3
20260503022240 51 251 6.1 7.8 0.00 0.00 0.00 52 1015.3
20260503021737 51 267 4.3 7.0 0.00 0.00 0.00 52 1015.4
20260503021233 51 247 4.3 5.2 0.00 0.00 0.00 53 1015.4
20260503020731 51 249 6.1 7.0 0.00 0.00 0.00 51 1015.3
20260503020228 51 251 4.3 6.1 0.00 0.00 0.00 51 1015.3
20260503015724 52 257 5.2 6.1 0.00 0.00 0.00 50 1015.2
20260503015221 52 247 4.3 6.1 0.00 0.00 0.00 50 1015.3
20260503014717 52 233 4.3 6.1 0.00 0.00 0.00 50 1015.3
20260503014216 52 242 5.2 7.0 0.00 0.00 0.00 48 1015.2
20260503013712 52 260 5.2 7.0 0.00 0.00 0.00 48 1015.0
20260503013210 53 250 4.3 5.2 0.00 0.00 0.00 47 1015.1
20260503012707 53 250 5.2 6.1 0.00 0.00 0.00 46 1015.2
20260503012204 52 257 4.3 5.2 0.00 0.00 0.00 48 1015.0
20260503011701 52 281 3.5 5.2 0.00 0.00 0.00 50 1015.2
20260503011158 52 280 4.3 6.1 0.00 0.00 0.00 50 1015.1
20260503010654 52 267 4.3 6.1 0.00 0.00 0.00 50 1015.2
20260503010151 53 282 4.3 6.1 0.00 0.00 0.00 50 1015.2
20260503005648 53 282 5.2 5.2 0.00 0.00 0.00 51 1015.3
20260503005145 53 280 6.1 7.0 0.00 0.00 0.00 50 1015.1
20260503004641 53 274 6.1 7.0 0.00 0.00 0.00 50 1015.0
20260503004140 54 274 7.8 8.7 0.00 0.00 0.00 46 1015.0
20260503003637 55 280 6.1 7.8 0.00 0.00 0.00 48 1015.0
20260503003134 54 283 6.1 7.0 0.00 0.00 0.00 50 1015.1
20260503002631 55 283 7.0 8.7 0.00 0.00 0.00 49 1015.2
20260503002127 55 283 6.1 7.8 0.00 0.00 0.00 48 1015.1
20260503001623 56 283 7.0 7.8 0.00 0.00 0.00 48 1015.1
20260503001120 57 286 4.3 7.0 0.00 0.00 0.00 47 1015.2
20260503000618 57 282 6.1 8.7 0.00 0.00 0.00 45 1015.0
20260503000115 57 296 7.8 13.0 0.00 0.00 0.00 42 1015.1
20260502235612 57 319 10.4 12.2 0.00 0.00 0.00 42 1015.1
20260502235110 57 316 9.6 13.0 0.00 0.00 0.00 41 1015.3
20260502234605 56 277 9.6 13.0 0.00 0.00 0.00 42 1015.3
20260502234103 57 297 10.4 14.8 0.00 0.00 0.00 41 1015.3
20260502233603 57 273 9.6 13.0 0.00 0.00 0.00 42 1015.3
20260502233101 57 279 11.3 14.8 0.00 0.00 0.00 41 1015.4
20260502232556 57 307 12.2 14.8 0.00 0.00 0.00 41 1015.4
20260502232054 57 293 10.4 13.9 0.00 0.00 0.00 43 1015.4
20260502231551 58 281 10.4 12.2 0.00 0.00 0.00 41 1015.5
20260502231049 58 274 9.6 14.8 0.00 0.00 0.00 38 1015.5
20260502230547 57 290 8.7 12.2 0.00 0.00 0.00 43 1015.5
20260502230045 57 296 14.8 14.8 0.00 0.00 0.00 40 1015.7